Location: Unspecified
(51.5147°N, 7.4673°E)
Time: 10:51:55
(UTC+01:00)

Vanguard 2 - Pass Details

Date: 24 February 2026
Orbit: 553 x 2896 km, 32.9° (Epoch: 7 March)

Event Time Altitude Azimuth Distance (km) Brightness Sun altitude
Rises 06:35:09 0° 240° (WSW) 4,034 - -8.7°
Exits shadow 06:35:52 - 237° (WSW) 3,805 10.6 -8.5°
Reaches altitude 10° 06:41:06 10° 203° (SSW) 2,480 10.0 -7.7°
Maximum altitude 06:42:05 10° 193° (SSW) 2,361 10.0 -7.6°
Drops below altitude 10° 06:43:01 10° 183° (S) 2,310 10.0 -7.4°
Sets 06:47:24 0° 141° (SE) 2,903 11.3 -6.8°
